Location: ??????
(55.7522°N, 37.6156°E)
Time: 18:09:56
(UTC+00:00)

Cosmos 1933 Rocket - Pass Details

Date: 14 June 2025
Orbit: 600 x 624 km, 82.5° (Epoch: 13 July)

Event Time Altitude Azimuth Distance (km) Brightness Sun altitude
Rises 19:46:14 0° 344° (NNW) 2,909 9.3 -7.9°
Reaches altitude 10° 19:48:33 10° 337° (NNW) 1,995 7.9 -8.1°
Maximum altitude 19:52:44 43° 267° (W) 870 4.5 -8.3°
Drops below altitude 10° 19:56:51 10° 196° (SSW) 1,965 5.7 -8.5°
Enters shadow 19:57:39 - 193° (SSW) 2,278 6.0 -8.5°
